KAVXKSAN

Guest
Details From KAVX - Catalina
To KSAN - San Diego Intl
Flight Number -
Tags generated
Created
Modified
Stats Distance 74 nm / 137 km
Max Altitude 3,300 ft / 1,006 m
Waypoints 3
Social Downloads 1
Likes 0
Share VATSIM

Download

Looking for another format? Having issues loading an existing format? Contact us
Advertisement - Login to hide

Notes

Basic altitude profile: - Ascent Rate: 2500ft/min - Ascent Speed: 250kts - Cruise Altitude: 35000ft - Cruise Speed: 420kts - Descent Rate: 1500ft/min - Descent Speed: 250kts Options: - Use NATs: yes - Use PACOTS: yes - Use low airways: yes - Use high airways: yes

Route

KAVX AVOLS KSAN

ID Type Via Altitude Latitude Longitude Leg Dist Tot Dist Heading (true) Name
O KAVX APT - 0 ft / 0 m 33.40466˚ -118.41588˚ - 0 nm - Catalina
AVOLS FIX - 3,300 ft / 1,006 m 33.35179˚ -118.24184˚ 9 nm 9 nm 110° / 110° -
O KSAN APT - 0 ft / 0 m 32.73356˚ -117.18966˚ 64 nm 73 nm 125° / 125° San Diego Intl

Altitude Profile

Advertisement - Login to hide

KAVX

Details ICAO KAVX (AVX)
Name Catalina
Region United States
Timezone America/Los_Angeles (UTC-7.0)
Stats Elevation 1,601 ft / 488 m (AMSL)
Location 33.404656° -118.415880°
Runways 1
Magnetic Variation 11.864° E

METAR

KAVX 220931Z AUTO 22004KT 1/4SM HZ FEW001 OVC015 11/M01 A2988 RMK AO2 T01111006 $

Decode

TAF

Not found

Departure Runways

ID Width Length Bearing (true) Bearing (mag) Surface Threshold Offset Overrun Length
04 59 ft / 18 m 3,127 ft / 953 m 54.93° 43.07° Asphalt 131 ft / 40 m 0 ft / 0 m
22 59 ft / 18 m 3,127 ft / 953 m 234.93° 223.07° Asphalt 62 ft / 19 m 0 ft / 0 m

KSAN

Details ICAO KSAN (SAN)
Name San Diego Intl
Region United States
Timezone America/Los_Angeles (UTC-7.0)
Stats Elevation 17 ft / 5 m (AMSL)
Location 32.733556° -117.189658°
Runways 1
Magnetic Variation 11.488° E

METAR

KSAN 220851Z 23008KT 10SM FEW022 OVC033 16/10 A2992 RMK AO2 SLP131 T01610100 58003

Decode

TAF

TAF AMD KSAN 220857Z 2209/2312 23006KT P6SM SCT022 OVC035 FM222000 28010KT P6SM SCT025 BKN035 FM230200 30005KT P6SM BKN018 OVC025

Decode

Destination Runways

ID Width Length Bearing (true) Bearing (mag) Surface Threshold Offset Overrun Length
09 200 ft / 61 m 9,387 ft / 2,861 m 106.07° 94.58° Asphalt 699 ft / 213 m 269 ft / 82 m
27 200 ft / 61 m 9,387 ft / 2,861 m 286.08° 274.59° Asphalt 1,811 ft / 552 m 0 ft / 0 m

Approach Navaids

Runway Type Ident Frequency Range Bearing (true) Bearing (mag) Slope Elevation
09 Localiser ISAN 111.55 MHz 18 nm / 33 km 106.08° 94.59° - 17 ft / 5 m (AMSL)
09 Glidescope ISAN 111.55 MHz 10 nm / 19 km 106.08° 94.59° 3.22° 13 ft / 4 m (AMSL)
09 DME ISAN 111.55 MHz 18 nm / 33 km - - - 29 ft / 9 m (AMSL)
27 Localiser IUBR 110.90 MHz 18 nm / 33 km 286.07° 274.58° - 13 ft / 4 m (AMSL)
27 DME IUBR 110.90 MHz 18 nm / 33 km - - - 26 ft / 8 m (AMSL)

Popular Alternatives